This is the latest recevied weather packets stored in our database for station/object DB5ZQ. If no packets are shown the sender has not sent any weather packets the latest 10 day(s).
| Time | Temp. | Humidity | Pressure | Rain* | Wind** | Luminosity | Snow |
|---|---|---|---|---|---|---|---|
| 1787834797 | 33.89° C | 33% | 1007.4 hPa | 0 mm | - | - | - |
| 1787834497 | 33.89° C | 33% | 1007.5 hPa | 0 mm | - | - | - |
| 1787834196 | 33.33° C | 34% | 1007.7 hPa | 0 mm | - | - | - |
| 1787833896 | 33.33° C | 35% | 1007.6 hPa | 0 mm | - | - | - |
| 1787833596 | 32.78° C | 37% | 1007.7 hPa | 0 mm | - | - | - |
| 1787833295 | 32.78° C | 37% | 1007.7 hPa | 0 mm | - | - | - |
| 1787832995 | 32.22° C | 37% | 1007.8 hPa | 0 mm | - | - | - |
| 1787832695 | 32.22° C | 37% | 1007.7 hPa | 0 mm | - | - | - |
| 1787832395 | 32.22° C | 37% | 1007.6 hPa | 0 mm | - | - | - |
| 1787832094 | 32.22° C | 37% | 1007.7 hPa | 0 mm | - | - | - |
| 1787831794 | 32.22° C | 38% | 1007.8 hPa | 0 mm | - | - | - |
| 1787831494 | 32.22° C | 38% | 1007.7 hPa | 0 mm | - | - | - |
| 1787831193 | 32.22° C | 38% | 1007.9 hPa | 0 mm | - | - | - |
| 1787830893 | 32.22° C | 39% | 1007.9 hPa | 0 mm | - | - | - |
| 1787830593 | 32.22° C | 39% | 1008 hPa | 0 mm | - | - | - |
| 1787830293 | 32.22° C | 39% | 1008 hPa | 0 mm | - | - | - |
| 1787829992 | 31.11° C | 40% | 1008.1 hPa | 0 mm | - | - | - |
| 1787829692 | 31.11° C | 41% | 1008.1 hPa | 0 mm | - | - | - |
| 1787829392 | 30.56° C | 42% | 1008.2 hPa | 0 mm | - | - | - |
| 1787829091 | 30° C | 42% | 1008.3 hPa | 0 mm | - | - | - |
| 1787828791 | 30° C | 43% | 1008.4 hPa | 0 mm | - | - | - |
| 1787828491 | 30.56° C | 42% | 1008.4 hPa | 0 mm | - | - | - |
| 1787828191 | 30° C | 42% | 1008.4 hPa | 0 mm | - | - | - |
| 1787827890 | 30° C | 43% | 1008.4 hPa | 0 mm | - | - | - |
| 1787827590 | 30° C | 43% | 1008.3 hPa | 0 mm | - | - | - |
* Rain latest hour (hover to see other rain measurements)
** Current wind speed in m/s (hover to see current wind gust speed)